SCOUT X-4 R/B, 1815

Orbit data source: Space-Track

SCOUT X-4 R/B, 1815 is space debris in LEO originally from a launch on Mon, 06 Dec 1965 UTC launched from the Air Force Western Test Range (AFWTR). Debris objects in space refer to the collection of defunct objects orbiting the Earth. Examples of debris include non-operational satellites, rocket bodies, and fragments generated from explosions, collisions, or faulty payload assembly.

Loading next visibility...
Identifier
1815, 1965-101B
Orbit
LEO
Last TLE update
11 hours ago
Origin
Manufacturer
ABL
Mission
Spacecraft
Bus & Motor
ALTAIR, Unknown motor
Mass
33 kg wet, 33 kg dry
Launch date (UTC)
1965-12-06 (59 years ago)
Launch vehicle
Unknown
Launch site
Air Force Western Test Range (AFWTR)
Object type
Payload
Rocket body
Debris
Shape & HBR
Cyl, 1.5 m
Radar Cross Section
0.687 m², Medium (>0.1 m² and < 1m²)

Expand to show TLE details & history

TLE from 11 hours ago
0 SCOUT X-4 R/B
1 01815U 65101B   25128.77045950  .00003472  00000-0  36964-3 0  9990
2 01815  75.8435 348.8627 0006033 117.2230 242.9576 14.89139243  7977
Epoch: 2025-05-08T18:29Z
Definitive object data (Epoch: 2025-05-08T18:29:27.7Z)
Latitude
-0.0001°
Longitude
-155.33893°
Altitude
605.315 km
Speed
7.556 km/s
True Right ascension
23h 15m 27s
True Declination
0° 00' 00"
Sunlit
Object was in daylight at TLE epoch
Visualization TLE readout
Latitude
-43.16391°
Longitude
37.47884°
Altitude
618.327 km
Speed
7.548 km/s
Apparent Right ascension
07h 13m 10s
Apparent Declination
-79° 50' 39"
Sunlit
Object is in full shadow
Visualization observer readout
Local Sidereal Time
13:18:51
Azimuth
193.189° SSW
Elevation
-39.417°
Doppler factor
1
Orbital elements
Apogee altitude
602.248 km
Perigee altitude
593.831 km
Semi-major axis
6,976.176 km
Eccentricity
0.0006033
Inclination
75.8435°
RAAN
348.8627°
Arg. of periapsis
117.223°
True anomaly
242.89605°
Mean anomaly
242.9576°
Eccentric anomaly
242.92682°
Mean motion
3.72492 °/min
BSTAR
0.00036964
Orbital period
96.65 mins
Loading maneuver chart data...
Loading SW <> Apogee altitude chart data...
Loading historical data...
Loading historical data...
Loading historical data...
Loading historical data...
Loading historical data...
Loading historical data...
Loading historical data...

SCOUT X-4 R/B Visibility forecast

Observer location: undefined°, undefined°

Span
Click to sort rows by Start time (UTC) header in descending order
Start Az.
Max El. time (UTC)
Max El. Az.
Max El.
End time (UTC)
End Az.
8 mins2025-05-09 15:34:13.795Z187.018° SSW2025-05-09 15:38:13.795Z93.028° ESE43.308°2025-05-09 15:42:13.795Z21.256° NNE
6 mins2025-05-10 01:42:13.795Z4.92° NNE2025-05-10 01:44:13.795Z56.688° ENE37.72°2025-05-10 01:48:13.795Z146.149° SSE
|